Regional Weather Roundup
Issued by NWS

Home | Current Version | Previous Version | Text Only | Print | Product List | Glossary On
Versions: 1 2 3 4 5 6 7 8 9 10 11 12 13 14 15 16 17 18 19 20 21 22 23 24 25 26 27
000
ASUS45 KPSR 271010
RWRAZ

ARIZONA HOURLY REGIONAL WEATHER ROUNDUP
NATIONAL WEATHER SERVICE PHOENIX AZ
300 AM MST WED JUL 27 2016

NOTE: FAIR INDICATES FEW OR NO CLOUDS BELOW 12,000 FEET WITH NO
SIGNIFICANT WEATHER AND/OR OBSTRUCTIONS TO VISIBILITY.

AZZ001>003-036-271100-
NORTHWEST ARIZONA

CITY           SKY/WX    TMP DP  RH WIND       PRES   REMARKS
BULLHEAD CITY  PTCLDY    99  57  25 S3        29.72S
KINGMAN        PTCLDY    86  52  30 SW3       29.98S
$$

AZZ004>008-015-016-018-271100-
NORTH CENTRAL ARIZONA

CITY           SKY/WX    TMP DP  RH WIND       PRES   REMARKS
GRAND CANYON   CLEAR     54  45  71 CALM      30.28S HAZE
WILLIAMS       CLEAR     57  52  82 S6        30.36R
PRESCOTT       CLEAR     70  56  61 S6        30.13S
FLAGSTAFF      CLEAR     55  51  86 CALM      30.30F
PAYSON         PTCLDY    73  50  43 CALM      30.17R
PAGE           CLEAR     81  42  25 SW6       30.05S
$$

AZZ009>014-017-271100-
NORTHEAST ARIZONA

CITY           SKY/WX    TMP DP  RH WIND       PRES   REMARKS
WINSLOW        CLEAR     69  50  50 CALM      30.13R
SAINT JOHNS    MOCLDY    65  57  75 S6        30.19R
WINDOW ROCK    CLEAR     61  51  70 CALM      30.29S
SHOW LOW       MOCLDY    64  48  55 CALM      30.26R
$$

AZZ023-271100-
GREATER PHOENIX AREA

CITY           SKY/WX    TMP DP  RH WIND       PRES   REMARKS
PHOENIX        PTCLDY    92  64  39 SE6       29.79R
BUCKEYE        CLEAR     91  57  31 W3        29.81S
LUKE AFB       CLEAR     94  63  35 SW13      29.78R
DEER VALLEY    CLEAR     91  63  39 SE7       29.83R
SCOTTSDALE     CLEAR     92  63  38 SE5       29.85R
MESA-GATEWAY   CLEAR     88  59  37 SE8       29.85S
$$

AZZ027-028-271100-
SOUTHWEST MARICOPA COUNTY AND PINAL COUNTY

CITY           SKY/WX    TMP DP  RH WIND       PRES   REMARKS
CASA GRANDE    PTCLDY    90  63  40 E6        29.86R
GILA BEND      FAIR      94  59  30 W6        29.77S
$$

AZZ503-504-507>509-271100-
SOUTHEAST ARIZONA

CITY           SKY/WX    TMP DP  RH WIND       PRES   REMARKS
TUCSON         CLOUDY    81  67  62 CALM      29.95F
DAVIS-MONTHAN  CLOUDY    79  69  71 W3        29.94S
NOGALES        CLOUDY    73  65  75 NE6       30.06R
SIERRA VISTA   CLOUDY    74  58  56 SE8       30.13R
DOUGLAS        CLOUDY    75  66  73 S7        30.10S
SAFFORD        MOCLDY    85  59  41 CALM      29.96R
$$

AZZ020-021-025-026-031-271100-
SOUTHWEST ARIZONA

CITY           SKY/WX    TMP DP  RH WIND       PRES   REMARKS
YUMA           CLEAR     90  62  39 S14       29.74S
$$

CAZ031-033-041-043-047-048-061-271100-
SOUTHERN CALIFORNIA

CITY           SKY/WX    TMP DP  RH WIND       PRES   REMARKS
DOWNTOWN L.A.  CLEAR     69  64  84 CALM      29.86F
L.A. AIRPORT   PTCLDY    69  64  84 W5        29.87F
SAN DIEGO      PTCLDY    69  67  93 N5        29.87F
BURBANK        CLEAR     74  59  59 E3        29.87F
ONTARIO        PTCLDY    75  50  41 CALM      29.88F
RIVERSIDE      CLEAR     77  47  34 CALM      29.88S
PALM SPRINGS   CLEAR     92  52  25 SE5       29.76R
EL CENTRO NAS  CLEAR     87  65  47 E8        29.73R
IMPERIAL       CLEAR     90  69  50 SE9       29.71R
BLYTHE           N/A     93  64  38 S16       29.74S
NEEDLES        PTCLDY   101  54  20 W9        29.75R
$$

NVZ020-UTZ003-271100-
SOUTHERN NEVADA-UTAH

CITY           SKY/WX    TMP DP  RH WIND       PRES   REMARKS
LAS VEGAS      PTCLDY    96  41  15 S8        29.79R
SALT LAKE CITY CLEAR     74  40  29 SW3       30.05R
$$

NMZ009-TXZ055-271100-
NEW MEXICO-WEST TEXAS

CITY           SKY/WX    TMP DP  RH WIND       PRES   REMARKS
ALBUQUERQUE    CLOUDY    70  59  68 SE8       30.20S
EL PASO        RAIN      75  64  68 N7        30.10R
$$


........................KEY........................
SKY/WX - SKY CONDITION/WEATHER
TMP    - TEMPERATURE IN FAHRENHEIT
DP     - DEW POINT IN FAHRENHEIT
RH     - RELATIVE HUMIDITY IN PERCENT
WIND   - DIRECTION AND SPEED IN MILES PER HOUR (MPH)
VRB    - VARIABLE WIND DIRECTION
PRES   - MEAN SEA LEVEL PRESSURE IN INCHES OF MERCURY
         F - FALLING PRESSURE   R - RISING PRESSURE
         S - STEADY PRESSURE
VSB    - VISIBILITY IN MILES
HX     - HEAT INDEX IN FAHRENHEIT
WCI    - WIND CHILL INDEX IN FAHRENHEIT
TC     - TEMPERATURE IN CELSIUS WHICH IS ALSO KNOWN AS
         TEMPERATURE IN CENTIGRADE
AFB    - AIR FORCE BASE
         LUKE AFB IS LUKE AIR FORCE BASE
         DAVIS-MONTHAN IS DAVIS-MONTHAN AIR FORCE BASE
NAS    - NAVAL AIR STATION
         EL CENTRO NAS IS EL CENTRO NAVAL AIR STATION
N/A    - NOT AVAILABLE





USA.gov is the U.S. government's official web portal to all federal, state and local government web resources and services.